Location: Newark
(11.2914°S, 14.4718°E)
Time: 23:35:38
(UTC+00:00)

Courier 1B Rocket - All Passes

Search period start: 18 October 2019 00:00
Search period end: 28 October 2019 00:00
Orbit: 920 x 1202 km, 28.2° (Epoch: 17 October)

Date Brightness Start Highest point End Pass type
(mag) Time Alt. Az. Time Alt. Az. Time Alt. Az.
18 Oct - 09:11:46 10° NNE 09:13:01 10° NNE 09:14:17 10° NE daylight
18 Oct - 10:59:52 10° NW 11:06:47 42° NNE 11:14:01 10° E daylight
18 Oct - 12:52:57 10° WNW 13:00:36 68° SSW 13:08:27 10° ESE daylight
18 Oct - 14:48:25 10° WSW 14:55:08 30° SSW 15:01:47 10° SE daylight
18 Oct - 16:44:47 10° SW 16:50:23 21° S 16:55:49 10° SE daylight
18 Oct - 18:39:28 10° SW 18:45:39 27° SSE 18:51:31 10° ESE visible
18 Oct - 20:32:56 10° SW 20:40:05 60° SSE 20:46:41 10° ENE visible
18 Oct - 22:27:11 10° W 22:33:35 42° NNW 22:39:36 10° NE night (unlit)
19 Oct - 09:59:35 10° NNW 10:05:34 27° NNE 10:11:50 10° E daylight
19 Oct - 11:51:40 10° WNW 11:59:13 88° NNE 12:07:08 10° ESE daylight
19 Oct - 13:46:23 10° W 13:53:29 38° SSW 14:00:39 10° SE daylight
19 Oct - 15:42:42 10° SW 15:48:34 22° S 15:54:20 10° SE daylight
19 Oct - 17:38:03 10° SW 17:43:59 23° S 17:49:39 10° ESE visible
19 Oct - 19:31:43 10° SW 19:38:46 44° SSE 19:45:19 10° E visible
19 Oct - 21:25:31 10° WSW 21:32:34 65° NNW 21:39:04 10° NE visible
19 Oct - 23:21:54 10° WNW 23:25:53 16° NNW 23:29:45 10° N night (unlit)
20 Oct - 08:59:55 10° N 09:04:22 17° NNE 09:08:58 10° ENE daylight
20 Oct - 10:50:43 10° NW 10:57:56 62° NNE 11:05:36 10° ESE daylight
20 Oct - 12:44:35 10° W 12:51:56 49° SSW 12:59:30 10° SE daylight
20 Oct - 14:40:32 10° WSW 14:46:46 25° S 14:52:59 10° SE daylight
20 Oct - 16:36:26 10° SW 16:42:11 22° S 16:47:47 10° SE daylight
20 Oct - 18:30:28 10° SW 18:37:18 34° SSE 18:43:43 10° E visible
20 Oct - 20:24:03 10° WSW 20:31:26 87° SSE 20:38:15 10° ENE visible
20 Oct - 22:19:10 10° W 22:24:51 27° NNW 22:30:12 10° NNE night (unlit)
21 Oct - 09:50:07 10° NW 09:56:44 41° NNE 10:03:48 10° E daylight
21 Oct - 11:43:05 10° WNW 11:50:28 66° SSW 11:58:15 10° SE daylight
21 Oct - 13:38:25 10° WSW 13:45:01 30° SSW 13:51:43 10° SE daylight
21 Oct - 15:34:37 10° SW 15:40:21 21° S 15:46:01 10° SE daylight
21 Oct - 17:29:11 10° SW 17:35:41 28° SSE 17:41:54 10° ESE visible
21 Oct - 19:22:42 10° SW 19:30:11 62° SSE 19:37:07 10° ENE visible
21 Oct - 21:17:04 10° W 21:23:48 42° NNW 21:30:03 10° NE visible
22 Oct - 08:49:54 10° NNW 08:55:36 27° NNE 09:01:37 10° E daylight
22 Oct - 10:41:53 10° WNW 10:49:08 89° NNE 10:56:54 10° ESE daylight
22 Oct - 12:36:29 10° W 12:43:22 37° SSW 12:50:30 10° SE daylight
22 Oct - 14:32:38 10° SW 14:38:30 22° S 14:44:22 10° SE daylight
22 Oct - 16:27:48 10° SW 16:33:57 24° S 16:39:56 10° ESE daylight
22 Oct - 18:21:27 10° SW 18:28:48 46° SSE 18:35:43 10° E visible
22 Oct - 20:15:19 10° WSW 20:22:42 64° NNW 20:29:31 10° NE visible
22 Oct - 22:11:49 10° WNW 22:16:06 17° NNW 22:20:14 10° N night (unlit)
23 Oct - 07:50:21 10° N 07:54:28 17° NNE 07:58:45 10° ENE daylight
23 Oct - 09:41:01 10° NW 09:47:56 62° NNE 09:55:22 10° ESE daylight
23 Oct - 11:34:48 10° W 11:41:50 48° SSW 11:49:17 10° SE daylight
23 Oct - 13:30:35 10° WSW 13:36:40 25° S 13:42:53 10° SE daylight
23 Oct - 15:26:16 10° SW 15:32:08 22° S 15:37:57 10° SE daylight
23 Oct - 17:20:13 10° SW 17:27:17 36° SSE 17:34:02 10° E visible
23 Oct - 19:13:48 10° WSW 19:21:30 89° SSE 19:28:39 10° ENE visible
23 Oct - 21:09:01 10° W 21:15:00 27° NNW 21:20:39 10° NNE visible
24 Oct - 08:40:29 10° NW 08:46:48 41° NNE 08:53:36 10° E daylight
24 Oct - 10:33:22 10° WNW 10:40:26 64° SSW 10:48:00 10° SE daylight
24 Oct - 12:28:36 10° WSW 12:34:57 29° SSW 12:41:32 10° SE daylight
24 Oct - 14:24:34 10° SW 14:30:16 22° S 14:36:01 10° SE daylight
24 Oct - 16:18:58 10° SW 16:25:37 29° SSE 16:32:08 10° ESE daylight
24 Oct - 18:12:27 10° SW 18:20:10 65° SSE 18:27:27 10° ENE visible
24 Oct - 20:06:52 10° W 20:13:53 42° NNW 20:20:27 10° NE visible
25 Oct - 07:40:20 10° NNW 07:45:44 26° NNE 07:51:26 10° E daylight
25 Oct - 09:32:14 10° WNW 09:39:10 89° SSW 09:46:40 10° ESE daylight
25 Oct - 11:26:46 10° W 11:33:20 35° SSW 11:40:16 10° SE daylight
25 Oct - 13:22:43 10° SW 13:28:25 22° S 13:34:15 10° SE daylight
25 Oct - 15:17:40 10° SW 15:23:52 25° S 15:30:03 10° ESE daylight
25 Oct - 17:11:12 10° SW 17:18:44 48° SSE 17:25:58 10° E visible
25 Oct - 19:05:05 10° WSW 19:12:43 64° NNW 19:19:51 10° NE visible
25 Oct - 21:01:37 10° WNW 21:06:15 18° NNW 21:10:41 10° N visible
26 Oct - 06:40:51 10° N 06:44:40 16° NNE 06:48:37 10° ENE daylight
26 Oct - 08:31:26 10° NW 08:38:01 63° NNE 08:45:09 10° ESE daylight
26 Oct - 10:25:09 10° W 10:31:50 45° SSW 10:39:01 10° SE daylight
26 Oct - 12:20:49 10° WSW 12:26:38 24° S 12:32:40 10° SE daylight
26 Oct - 14:16:15 10° SW 14:22:03 22° S 14:27:55 10° SE daylight
26 Oct - 16:10:01 10° SW 16:17:11 37° SSE 16:24:12 10° E daylight
26 Oct - 18:03:34 10° WSW 18:11:27 90° NNW 18:18:55 10° ENE visible
26 Oct - 19:58:48 10° W 20:05:04 28° NNW 20:11:01 10° NNE visible
27 Oct - 07:30:55 10° NW 07:36:58 41° NNE 07:43:26 10° E daylight
27 Oct - 09:23:47 10° WNW 09:30:30 62° SSW 09:37:46 10° SE daylight
27 Oct - 11:18:56 10° WSW 11:24:56 28° SSW 11:31:15 10° SE daylight
27 Oct - 13:14:42 10° SW 13:20:13 21° S 13:25:52 10° SE daylight
27 Oct - 15:08:52 10° SW 15:15:31 30° SSE 15:22:10 10° ESE daylight
27 Oct - 17:02:14 10° SW 17:10:04 66° SSE 17:17:39 10° ENE daylight
27 Oct - 18:56:39 10° W 19:03:52 42° NNW 19:10:44 10° NE visible
27 Oct - 20:56:06 10° NW 20:57:35 11° NNW 20:59:03 10° NNW visible
